Location: Bj�rn�ya
(74.5000°N, 19.0000°E)
Time: 08:58:44
(UTC+02:00)

Envisat - Pass Details

Date: 01 February 2022
Orbit: 764 x 765 km, 98.2° (Epoch: 20 May)

Event Time Altitude Azimuth Distance (km) Brightness Sun altitude
Rises 17:59:42 0° 233° (SW) 3,235 7.2 -16.5°
Reaches altitude 10° 18:02:56 10° 255° (WSW) 2,312 6.7 -16.7°
Maximum altitude 18:06:04 16° 293° (WNW) 1,921 5.9 -16.9°
Drops below altitude 10° 18:09:12 10° 332° (NNW) 2,318 5.8 -17.1°
Sets 18:12:26 0° 353° (N) 3,248 6.3 -17.3°
